Time,TemperatureF,DewpointF,PressureIn,WindDirection,WindDirectionDegrees,WindSpeedMPH,WindSpeedGustMPH,Humidity,HourlyPrecipIn,Conditions,Clouds,dailyrainin,SoftwareType,DateUTC
2013-03-04 00:00:00,33.4,6.8,30.02,West,267,0.0,3.1,32,0.00,,,0.00,VWS V14.00,2013-03-04 05:00:00,
2013-03-04 00:02:00,33.3,7.3,30.02,North,353,3.6,4.0,33,0.00,,,0.00,VWS V14.00,2013-03-04 05:02:00,
2013-03-04 00:07:00,33.1,7.1,30.02,North,0,2.7,4.0,33,0.00,,,0.00,VWS V14.00,2013-03-04 05:07:00,
2013-03-04 00:12:00,33.1,7.1,30.02,WNW,303,3.6,3.6,33,0.00,,,0.00,VWS V14.00,2013-03-04 05:12:00,
2013-03-04 00:18:00,33.1,7.1,30.02,West,275,3.1,5.8,33,0.00,,,0.00,VWS V14.00,2013-03-04 05:18:00,
2013-03-04 00:23:00,32.7,7.5,30.02,North,353,3.1,3.1,34,0.00,,,0.00,VWS V14.00,2013-03-04 05:23:00,
2013-03-04 00:28:00,32.5,7.3,30.02,WNW,298,4.9,5.4,34,0.00,,,0.00,VWS V14.00,2013-03-04 05:28:00,
2013-03-04 00:33:00,32.5,7.3,30.02,West,275,3.6,4.0,34,0.00,,,0.00,VWS V14.00,2013-03-04 05:33:00,
2013-03-04 00:38:00,32.4,7.1,30.02,WNW,293,2.2,4.0,34,0.00,,,0.00,VWS V14.00,2013-03-04 05:38:00,
2013-03-04 00:43:00,32.2,7.0,30.02,NW,307,3.1,4.9,34,0.00,,,0.00,VWS V14.00,2013-03-04 05:43:00,
2013-03-04 00:48:00,32.2,7.6,30.02,NNW,327,2.2,3.1,35,0.00,,,0.00,VWS V14.00,2013-03-04 05:48:00,
2013-03-04 00:53:00,32.2,7.6,30.02,NW,322,2.2,4.0,35,0.00,,,0.00,VWS V14.00,2013-03-04 05:53:00,
2013-03-04 00:58:00,32.2,8.2,30.05,NNW,332,3.1,3.1,36,0.00,,,0.00,VWS V14.00,2013-03-04 05:58:00,
2013-03-04 01:03:00,32.0,7.5,30.05,NW,307,3.1,3.6,35,0.00,,,0.00,VWS V14.00,2013-03-04 06:03:00,
2013-03-04 01:08:00,31.6,7.1,30.05,West,281,3.1,4.0,35,0.00,,,0.00,VWS V14.00,2013-03-04 06:08:00,
2013-03-04 01:13:00,31.6,7.8,30.05,NW,306,3.6,3.6,36,0.00,,,0.00,VWS V14.00,2013-03-04 06:13:00,
2013-03-04 01:19:00,31.6,7.8,30.05,NW,324,2.7,2.7,36,0.00,,,0.00,VWS V14.00,2013-03-04 06:19:00,
2013-03-04 01:24:00,31.5,7.6,30.05,NW,305,2.2,3.1,36,0.00,,,0.00,VWS V14.00,2013-03-04 06:24:00,
2013-03-04 01:29:00,31.1,7.3,30.02,NW,315,2.2,2.2,36,0.00,,,0.00,VWS V14.00,2013-03-04 06:29:00,
2013-03-04 01:34:00,31.1,8.5,30.02,WNW,302,2.2,3.6,38,0.00,,,0.00,VWS V14.00,2013-03-04 06:34:00,
2013-03-04 01:39:00,30.9,8.3,30.02,WNW,291,2.7,3.1,38,0.00,,,0.00,VWS V14.00,2013-03-04 06:39:00,
2013-03-04 01:44:00,30.9,8.3,30.05,WNW,291,3.6,3.6,38,0.00,,,0.00,VWS V14.00,2013-03-04 06:44:00,
2013-03-04 01:49:00,30.9,8.3,30.05,NW,313,2.2,3.6,38,0.00,,,0.00,VWS V14.00,2013-03-04 06:49:00,
2013-03-04 01:54:00,30.9,8.3,30.05,WNW,295,2.7,3.1,38,0.00,,,0.00,VWS V14.00,2013-03-04 06:54:00,
2013-03-04 01:59:00,30.6,8.6,30.05,NW,304,3.6,3.6,39,0.00,,,0.00,VWS V14.00,2013-03-04 06:59:00,
2013-03-04 02:04:00,30.6,8.0,30.05,NW,304,0.0,0.0,38,0.00,,,0.00,VWS V14.00,2013-03-04 07:04:00,
2013-03-04 02:09:00,30.4,8.4,30.05,WNW,289,2.7,2.7,39,0.00,,,0.00,VWS V14.00,2013-03-04 07:09:00,
2013-03-04 02:15:00,30.2,8.8,30.05,WNW,288,3.1,3.1,40,0.00,,,0.00,VWS V14.00,2013-03-04 07:15:00,
2013-03-04 02:20:00,30.2,8.8,30.05,WNW,288,3.1,3.1,40,0.00,,,0.00,VWS V14.00,2013-03-04 07:20:00,
2013-03-04 02:25:00,30.2,9.4,30.05,WNW,289,2.7,3.1,41,0.00,,,0.00,VWS V14.00,2013-03-04 07:25:00,
2013-03-04 02:30:00,30.2,9.4,30.05,WNW,300,2.2,3.1,41,0.00,,,0.00,VWS V14.00,2013-03-04 07:30:00,
2013-03-04 02:35:00,30.2,9.4,30.05,WNW,300,2.7,3.6,41,0.00,,,0.00,VWS V14.00,2013-03-04 07:35:00,
2013-03-04 02:40:00,30.2,9.4,30.05,WNW,300,0.0,3.6,41,0.00,,,0.00,VWS V14.00,2013-03-04 07:40:00,
2013-03-04 02:45:00,30.4,9.0,30.05,NW,317,0.0,3.6,40,0.00,,,0.00,VWS V14.00,2013-03-04 07:45:00,
2013-03-04 02:50:00,30.4,9.0,30.05,NW,306,2.7,2.7,40,0.00,,,0.00,VWS V14.00,2013-03-04 07:50:00,
2013-03-04 02:55:00,30.4,9.0,30.08,WNW,299,3.6,3.6,40,0.00,,,0.00,VWS V14.00,2013-03-04 07:55:00,
2013-03-04 03:00:00,30.4,9.0,30.08,NW,323,3.6,4.0,40,0.00,,,0.00,VWS V14.00,2013-03-04 08:00:00,
2013-03-04 03:05:00,30.6,9.1,30.08,WNW,303,2.2,3.6,40,0.00,,,0.00,VWS V14.00,2013-03-04 08:05:00,
2013-03-04 03:11:00,30.6,9.1,30.11,NW,319,3.6,3.6,40,0.00,,,0.00,VWS V14.00,2013-03-04 08:11:00,
2013-03-04 03:16:00,30.9,9.4,30.11,North,5,5.8,5.8,40,0.00,,,0.00,VWS V14.00,2013-03-04 08:16:00,
2013-03-04 03:21:00,30.9,9.4,30.11,North,357,4.0,4.0,40,0.00,,,0.00,VWS V14.00,2013-03-04 08:21:00,
2013-03-04 03:26:00,30.7,9.3,30.14,NNW,332,3.6,3.6,40,0.00,,,0.00,VWS V14.00,2013-03-04 08:26:00,
2013-03-04 03:31:00,30.7,9.3,30.14,WNW,293,5.4,5.4,40,0.00,,,0.00,VWS V14.00,2013-03-04 08:31:00,
2013-03-04 03:36:00,30.7,9.3,30.14,West,270,2.7,2.7,40,0.00,,,0.00,VWS V14.00,2013-03-04 08:36:00,
2013-03-04 03:41:00,29.8,9.0,30.14,WNW,293,4.0,4.0,41,0.00,,,0.00,VWS V14.00,2013-03-04 08:41:00,
2013-03-04 03:46:00,29.5,8.7,30.14,WNW,286,2.2,2.2,41,0.00,,,0.00,VWS V14.00,2013-03-04 08:46:00,
2013-03-04 03:51:00,29.3,8.5,30.14,WNW,294,3.1,3.1,41,0.00,,,0.00,VWS V14.00,2013-03-04 08:51:00,
2013-03-04 03:57:00,28.9,8.7,30.14,West,260,2.7,2.7,42,0.00,,,0.00,VWS V14.00,2013-03-04 08:57:00,
2013-03-04 04:02:00,28.9,8.7,30.14,WNW,299,2.2,2.7,42,0.00,,,0.00,VWS V14.00,2013-03-04 09:02:00,
2013-03-04 04:07:00,28.8,8.6,30.14,WNW,299,2.2,3.6,42,0.00,,,0.00,VWS V14.00,2013-03-04 09:07:00,
2013-03-04 04:12:00,28.6,8.4,30.17,WNW,299,0.0,0.0,42,0.00,,,0.00,VWS V14.00,2013-03-04 09:12:00,
2013-03-04 04:17:00,28.6,8.4,30.17,WNW,299,0.0,0.0,42,0.00,,,0.00,VWS V14.00,2013-03-04 09:17:00,
2013-03-04 04:22:00,28.4,8.8,30.17,WNW,299,0.0,0.0,43,0.00,,,0.00,VWS V14.00,2013-03-04 09:22:00,
2013-03-04 04:27:00,28.4,8.8,30.17,WNW,299,0.0,0.0,43,0.00,,,0.00,VWS V14.00,2013-03-04 09:27:00,
2013-03-04 04:32:00,28.8,9.1,30.17,WNW,299,0.0,0.0,43,0.00,,,0.00,VWS V14.00,2013-03-04 09:32:00,
2013-03-04 04:37:00,28.6,8.9,30.17,WNW,299,2.2,3.6,43,0.00,,,0.00,VWS V14.00,2013-03-04 09:37:00,
2013-03-04 04:42:00,28.6,8.4,30.26,WNW,295,3.1,3.1,42,0.00,,,0.00,VWS V14.00,2013-03-04 09:42:00,
2013-03-04 04:47:00,28.8,8.6,30.26,WNW,295,2.2,2.2,42,0.00,,,0.00,VWS V14.00,2013-03-04 09:47:00,
2013-03-04 04:53:00,28.9,8.7,30.26,WNW,285,0.0,2.7,42,0.00,,,0.00,VWS V14.00,2013-03-04 09:53:00,
2013-03-04 04:58:00,28.9,8.7,30.23,WNW,285,0.0,0.0,42,0.00,,,0.00,VWS V14.00,2013-03-04 09:58:00,
2013-03-04 05:03:00,28.8,8.6,30.23,WNW,285,0.0,0.0,42,0.00,,,0.00,VWS V14.00,2013-03-04 10:03:00,
2013-03-04 05:08:00,28.6,8.9,30.23,WNW,285,0.0,0.0,43,0.00,,,0.00,VWS V14.00,2013-03-04 10:08:00,
2013-03-04 05:14:00,28.4,8.8,30.20,WNW,285,0.0,0.0,43,0.00,,,0.00,VWS V14.00,2013-03-04 10:14:00,
2013-03-04 05:19:00,28.2,9.1,30.20,WNW,285,0.0,0.0,44,0.00,,,0.00,VWS V14.00,2013-03-04 10:19:00,
2013-03-04 05:24:00,28.2,9.1,30.20,WNW,285,0.0,0.0,44,0.00,,,0.00,VWS V14.00,2013-03-04 10:24:00,
2013-03-04 05:29:00,28.4,9.3,30.26,WNW,285,0.0,2.2,44,0.00,,,0.00,VWS V14.00,2013-03-04 10:29:00,
2013-03-04 05:34:00,28.0,8.9,30.26,WNW,285,0.0,0.0,44,0.00,,,0.00,VWS V14.00,2013-03-04 10:34:00,
2013-03-04 05:39:00,27.7,9.1,30.26,WNW,285,0.0,2.2,45,0.00,,,0.00,VWS V14.00,2013-03-04 10:39:00,
2013-03-04 05:44:00,27.7,9.1,30.29,WNW,285,0.0,0.0,45,0.00,,,0.00,VWS V14.00,2013-03-04 10:44:00,
2013-03-04 05:49:00,27.7,9.1,30.29,WNW,285,0.0,0.0,45,0.00,,,0.00,VWS V14.00,2013-03-04 10:49:00,
2013-03-04 05:54:00,27.7,9.1,30.29,WNW,285,0.0,0.0,45,0.00,,,0.00,VWS V14.00,2013-03-04 10:54:00,
2013-03-04 05:59:00,27.5,9.0,30.29,WNW,285,0.0,0.0,45,0.00,,,0.00,VWS V14.00,2013-03-04 10:59:00,
2013-03-04 06:04:00,27.5,8.5,30.29,WNW,285,0.0,2.2,44,0.00,,,0.00,VWS V14.00,2013-03-04 11:04:00,
2013-03-04 06:10:00,27.7,9.1,30.29,WNW,285,0.0,0.0,45,0.00,,,0.00,VWS V14.00,2013-03-04 11:10:00,
2013-03-04 06:15:00,27.7,8.6,30.32,WNW,285,0.0,0.0,44,0.00,,,0.00,VWS V14.00,2013-03-04 11:15:00,
2013-03-04 06:20:00,27.7,9.1,30.32,WNW,285,0.0,0.0,45,0.00,,,0.00,VWS V14.00,2013-03-04 11:20:00,
2013-03-04 06:25:00,27.5,9.0,30.32,WNW,285,0.0,0.0,45,0.00,,,0.00,VWS V14.00,2013-03-04 11:25:00,
2013-03-04 06:30:00,27.3,9.8,30.23,WNW,285,0.0,0.0,47,0.00,,,0.00,VWS V14.00,2013-03-04 11:30:00,
2013-03-04 06:35:00,27.0,9.4,30.23,WNW,285,0.0,0.0,47,0.00,,,0.00,VWS V14.00,2013-03-04 11:35:00,
2013-03-04 06:40:00,27.0,10.4,30.23,WNW,285,0.0,0.0,49,0.00,,,0.00,VWS V14.00,2013-03-04 11:40:00,
2013-03-04 06:45:00,26.8,11.1,30.23,WNW,285,0.0,0.0,51,0.00,,,0.00,VWS V14.00,2013-03-04 11:45:00,
2013-03-04 06:50:00,26.8,11.1,30.23,WNW,286,0.0,0.0,51,0.00,,,0.00,VWS V14.00,2013-03-04 11:50:00,
2013-03-04 06:55:00,26.8,10.6,30.17,WNW,285,0.0,0.0,50,0.00,,,0.00,VWS V14.00,2013-03-04 11:55:00,
2013-03-04 07:00:00,26.6,10.5,30.17,WNW,285,0.0,0.0,50,0.00,,,0.00,VWS V14.00,2013-03-04 12:00:00,
2013-03-04 07:05:00,26.6,10.5,30.17,WNW,285,0.0,0.0,50,0.00,,,0.00,VWS V14.00,2013-03-04 12:05:00,
2013-03-04 07:11:00,26.4,10.3,30.23,WNW,285,0.0,0.0,50,0.00,,,0.00,VWS V14.00,2013-03-04 12:11:00,
2013-03-04 07:16:00,26.6,10.5,30.23,WNW,285,0.0,0.0,50,0.00,,,0.00,VWS V14.00,2013-03-04 12:16:00,
2013-03-04 07:21:00,27.0,11.3,30.23,WNW,285,0.0,0.0,51,0.00,,,0.00,VWS V14.00,2013-03-04 12:21:00,
2013-03-04 07:26:00,27.3,11.6,30.23,WNW,285,0.0,0.0,51,0.00,,,0.00,VWS V14.00,2013-03-04 12:26:00,
2013-03-04 07:31:00,27.3,11.6,30.23,WNW,285,0.0,0.0,51,0.00,,,0.00,VWS V14.00,2013-03-04 12:31:00,
2013-03-04 07:36:00,27.5,11.3,30.23,WNW,285,0.0,0.0,50,0.00,,,0.00,VWS V14.00,2013-03-04 12:36:00,
2013-03-04 07:41:00,27.9,11.6,30.26,WNW,285,0.0,0.0,50,0.00,,,0.00,VWS V14.00,2013-03-04 12:41:00,
2013-03-04 07:46:00,28.0,12.3,30.26,WNW,285,0.0,0.0,51,0.00,,,0.00,VWS V14.00,2013-03-04 12:46:00,
2013-03-04 07:51:00,28.6,12.3,30.26,WNW,285,0.0,0.0,50,0.00,,,0.00,VWS V14.00,2013-03-04 12:51:00,
2013-03-04 07:57:00,28.8,12.5,30.29,WNW,285,0.0,0.0,50,0.00,,,0.00,VWS V14.00,2013-03-04 12:57:00,
2013-03-04 08:02:00,29.3,13.0,30.29,WNW,286,0.0,0.0,50,0.00,,,0.00,VWS V14.00,2013-03-04 13:02:00,
2013-03-04 08:07:00,30.0,12.7,30.29,WNW,285,0.0,0.0,48,0.00,,,0.00,VWS V14.00,2013-03-04 13:07:00,
2013-03-04 08:12:00,30.7,11.4,30.20,NNW,340,0.0,0.0,44,0.00,,,0.00,VWS V14.00,2013-03-04 13:12:00,
2013-03-04 08:17:00,31.8,11.4,30.20,North,357,3.1,3.1,42,0.00,,,0.00,VWS V14.00,2013-03-04 13:17:00,
2013-03-04 08:22:00,32.5,11.5,30.20,North,357,2.2,3.6,41,0.00,,,0.00,VWS V14.00,2013-03-04 13:22:00,
2013-03-04 08:27:00,32.9,11.8,30.29,NNE,28,3.1,3.6,41,0.00,,,0.00,VWS V14.00,2013-03-04 13:27:00,
2013-03-04 08:32:00,33.4,11.7,30.29,North,0,3.1,4.9,40,0.00,,,0.00,VWS V14.00,2013-03-04 13:32:00,
2013-03-04 08:37:00,33.8,10.3,30.29,North,353,2.7,8.1,37,0.00,,,0.00,VWS V14.00,2013-03-04 13:37:00,
2013-03-04 08:42:00,34.0,9.2,30.32,NW,326,2.7,3.1,35,0.00,,,0.00,VWS V14.00,2013-03-04 13:42:00,
2013-03-04 08:47:00,34.3,8.9,30.32,North,0,0.0,2.7,34,0.00,,,0.00,VWS V14.00,2013-03-04 13:47:00,
2013-03-04 08:52:00,35.1,8.9,30.32,NNW,343,4.0,4.0,33,0.00,,,0.00,VWS V14.00,2013-03-04 13:52:00,
2013-03-04 08:57:00,35.4,9.2,30.23,North,353,2.7,5.4,33,0.00,,,0.00,VWS V14.00,2013-03-04 13:57:00,
2013-03-04 09:02:00,35.6,8.7,30.23,North,0,3.1,3.6,32,0.00,,,0.00,VWS V14.00,2013-03-04 14:02:00,
2013-03-04 09:07:00,35.8,8.8,30.23,ENE,75,3.1,4.0,32,0.00,,,0.00,VWS V14.00,2013-03-04 14:07:00,
2013-03-04 09:12:00,36.1,9.1,30.32,North,357,4.0,4.9,32,0.00,,,0.00,VWS V14.00,2013-03-04 14:12:00,
2013-03-04 09:17:00,36.3,8.6,30.32,NNW,340,4.0,4.9,31,0.00,,,0.00,VWS V14.00,2013-03-04 14:17:00,
2013-03-04 09:23:00,36.5,8.8,30.32,WNW,283,2.7,2.7,31,0.00,,,0.00,VWS V14.00,2013-03-04 14:23:00,
2013-03-04 09:28:00,36.9,9.1,30.32,North,357,3.6,5.8,31,0.00,,,0.00,VWS V14.00,2013-03-04 14:28:00,
2013-03-04 09:33:00,37.0,8.5,30.32,SW,229,0.0,4.0,30,0.00,,,0.00,VWS V14.00,2013-03-04 14:33:00,
2013-03-04 09:38:00,37.4,8.8,30.32,North,1,0.0,2.2,30,0.00,,,0.00,VWS V14.00,2013-03-04 14:38:00,
2013-03-04 09:43:00,37.9,9.3,30.38,North,353,4.9,5.8,30,0.00,,,0.00,VWS V14.00,2013-03-04 14:43:00,
2013-03-04 09:48:00,38.5,9.8,30.38,North,357,3.6,5.8,30,0.00,,,0.00,VWS V14.00,2013-03-04 14:48:00,
2013-03-04 09:53:00,38.8,10.1,30.38,NNW,341,3.6,3.6,30,0.00,,,0.00,VWS V14.00,2013-03-04 14:53:00,
2013-03-04 09:58:00,39.4,9.8,30.38,North,1,3.1,4.0,29,0.00,,,0.00,VWS V14.00,2013-03-04 14:58:00,
2013-03-04 10:03:00,39.6,9.9,30.38,NNE,14,2.7,6.3,29,0.00,,,0.00,VWS V14.00,2013-03-04 15:03:00,
2013-03-04 10:08:00,39.4,9.8,30.38,North,5,3.6,5.8,29,0.00,,,0.00,VWS V14.00,2013-03-04 15:08:00,
2013-03-04 10:13:00,39.7,10.1,30.38,North,353,3.6,5.4,29,0.00,,,0.00,VWS V14.00,2013-03-04 15:13:00,
2013-03-04 10:18:00,39.9,10.2,30.38,WNW,301,0.0,0.0,29,0.00,,,0.00,VWS V14.00,2013-03-04 15:18:00,
2013-03-04 10:23:00,40.8,11.0,30.38,East,87,0.0,0.0,29,0.00,,,0.00,VWS V14.00,2013-03-04 15:23:00,
2013-03-04 10:28:00,41.4,10.7,30.38,NE,42,3.6,3.6,28,0.00,,,0.00,VWS V14.00,2013-03-04 15:28:00,
2013-03-04 10:34:00,41.7,11.0,30.38,North,357,0.0,0.0,28,0.00,,,0.00,VWS V14.00,2013-03-04 15:34:00,
2013-03-04 10:39:00,42.4,11.7,30.38,NNE,14,3.1,3.1,28,0.00,,,0.00,VWS V14.00,2013-03-04 15:39:00,
2013-03-04 10:44:00,42.8,12.0,30.38,SE,137,0.0,3.1,28,0.00,,,0.00,VWS V14.00,2013-03-04 15:44:00,
2013-03-04 10:49:00,43.5,12.6,30.38,WNW,302,0.0,3.1,28,0.00,,,0.00,VWS V14.00,2013-03-04 15:49:00,
2013-03-04 10:54:00,43.7,12.8,30.38,North,0,6.3,6.3,28,0.00,,,0.00,VWS V14.00,2013-03-04 15:54:00,
2013-03-04 10:59:00,43.7,10.2,30.41,SW,214,2.7,4.0,25,0.00,,,0.00,VWS V14.00,2013-03-04 15:59:00,
2013-03-04 11:04:00,44.2,10.7,30.41,SW,224,2.7,2.7,25,0.00,,,0.00,VWS V14.00,2013-03-04 16:04:00,
2013-03-04 11:09:00,44.8,11.1,30.41,North,353,3.1,5.8,25,0.00,,,0.00,VWS V14.00,2013-03-04 16:09:00,
2013-03-04 11:14:00,45.5,11.7,30.38,NNE,18,5.4,5.8,25,0.00,,,0.00,VWS V14.00,2013-03-04 16:14:00,
2013-03-04 11:19:00,45.9,12.0,30.38,North,6,2.7,4.0,25,0.00,,,0.00,VWS V14.00,2013-03-04 16:19:00,
2013-03-04 11:24:00,46.2,12.4,30.38,NNE,19,0.0,2.7,25,0.00,,,0.00,VWS V14.00,2013-03-04 16:24:00,
2013-03-04 11:29:00,46.9,10.1,30.41,NW,322,4.0,4.5,22,0.00,,,0.00,VWS V14.00,2013-03-04 16:29:00,
2013-03-04 11:34:00,46.6,9.8,30.41,South,176,5.8,5.8,22,0.00,,,0.00,VWS V14.00,2013-03-04 16:34:00,
2013-03-04 11:39:00,46.8,9.9,30.41,WSW,242,0.0,6.3,22,0.00,,,0.00,VWS V14.00,2013-03-04 16:39:00,
2013-03-04 11:44:00,47.3,10.4,30.35,WSW,242,3.6,7.6,22,0.00,,,0.00,VWS V14.00,2013-03-04 16:44:00,
2013-03-04 11:50:00,48.4,10.3,30.35,North,2,2.7,4.0,21,0.00,,,0.00,VWS V14.00,2013-03-04 16:50:00,
2013-03-04 11:55:00,48.7,10.6,30.35,West,269,3.6,4.9,21,0.00,,,0.00,VWS V14.00,2013-03-04 16:55:00,
2013-03-04 12:00:00,49.5,11.2,30.32,NNE,20,2.7,3.6,21,0.00,,,0.00,VWS V14.00,2013-03-04 17:00:00,
2013-03-04 12:05:00,49.6,11.3,30.32,North,1,3.6,8.1,21,0.00,,,0.00,VWS V14.00,2013-03-04 17:05:00,
2013-03-04 12:10:00,50.0,9.4,30.41,WSW,256,0.0,3.6,19,0.00,,,0.00,VWS V14.00,2013-03-04 17:10:00,
2013-03-04 12:15:00,50.0,9.4,30.41,WSW,249,4.0,4.0,19,0.00,,,0.00,VWS V14.00,2013-03-04 17:15:00,
2013-03-04 12:20:00,49.8,9.2,30.41,North,0,4.0,4.0,19,0.00,,,0.00,VWS V14.00,2013-03-04 17:20:00,
2013-03-04 12:25:00,50.2,9.5,30.53,North,353,2.7,8.1,19,0.00,,,0.00,VWS V14.00,2013-03-04 17:25:00,
2013-03-04 12:30:00,50.9,10.1,30.53,North,0,7.2,7.2,19,0.00,,,0.00,VWS V14.00,2013-03-04 17:30:00,
2013-03-04 12:35:00,51.3,10.4,30.53,NW,309,2.7,5.8,19,0.00,,,0.00,VWS V14.00,2013-03-04 17:35:00,
2013-03-04 12:40:00,50.7,10.0,30.53,NW,326,4.5,4.5,19,0.00,,,0.00,VWS V14.00,2013-03-04 17:40:00,
2013-03-04 12:45:00,51.8,9.7,30.53,SW,228,4.0,5.4,18,0.00,,,0.00,VWS V14.00,2013-03-04 17:45:00,
2013-03-04 12:50:00,52.0,9.8,30.53,North,10,0.0,2.7,18,0.00,,,0.00,VWS V14.00,2013-03-04 17:50:00,
2013-03-04 12:55:00,52.3,10.1,30.58,West,281,4.0,5.8,18,0.00,,,0.00,VWS V14.00,2013-03-04 17:55:00,
2013-03-04 13:01:00,53.2,10.9,30.58,ESE,108,2.7,3.1,18,0.00,,,0.00,VWS V14.00,2013-03-04 18:01:00,
2013-03-04 13:06:00,54.5,11.9,30.58,NNE,14,2.2,6.3,18,0.00,,,0.00,VWS V14.00,2013-03-04 18:06:00,
2013-03-04 13:11:00,55.2,12.5,30.58,North,8,2.7,2.7,18,0.00,,,0.00,VWS V14.00,2013-03-04 18:11:00,
2013-03-04 13:16:00,55.2,12.5,30.58,North,4,3.1,5.8,18,0.00,,,0.00,VWS V14.00,2013-03-04 18:16:00,
2013-03-04 13:21:00,56.1,11.9,30.58,West,279,3.1,4.0,17,0.00,,,0.00,VWS V14.00,2013-03-04 18:21:00,
2013-03-04 13:26:00,56.3,12.1,30.53,NNW,332,3.1,5.4,17,0.00,,,0.00,VWS V14.00,2013-03-04 18:26:00,
2013-03-04 13:29:00,56.3,12.1,30.53,WSW,252,3.1,3.1,17,0.00,,,0.00,VWS V14.00,2013-03-04 18:29:00,
2013-03-04 13:30:00,56.5,12.2,30.53,North,357,3.6,3.6,17,0.00,,,0.00,VWS V14.00,2013-03-04 18:30:00,
2013-03-04 13:35:00,56.7,12.4,30.53,South,173,2.7,4.9,17,0.00,,,0.00,VWS V14.00,2013-03-04 18:35:00,
2013-03-04 13:40:00,56.7,12.4,30.47,North,0,3.6,4.9,17,0.00,,,0.00,VWS V14.00,2013-03-04 18:40:00,
2013-03-04 13:46:00,56.7,12.4,30.47,North,2,4.5,5.4,17,0.00,,,0.00,VWS V14.00,2013-03-04 18:46:00,
2013-03-04 13:51:00,57.9,13.4,30.47,SSW,206,2.7,3.6,17,0.00,,,0.00,VWS V14.00,2013-03-04 18:51:00,
2013-03-04 13:56:00,58.8,14.1,30.53,SSW,207,3.1,4.0,17,0.00,,,0.00,VWS V14.00,2013-03-04 18:56:00,
2013-03-04 14:01:00,58.8,14.1,30.53,SSW,193,4.9,4.9,17,0.00,,,0.00,VWS V14.00,2013-03-04 19:01:00,
2013-03-04 14:06:00,59.4,14.6,30.53,West,268,2.2,3.1,17,0.00,,,0.00,VWS V14.00,2013-03-04 19:06:00,
2013-03-04 14:11:00,60.6,15.6,30.53,South,171,0.0,5.8,17,0.00,,,0.00,VWS V14.00,2013-03-04 19:11:00,
2013-03-04 14:16:00,61.0,14.5,30.53,SW,234,3.1,7.2,16,0.00,,,0.00,VWS V14.00,2013-03-04 19:16:00,
2013-03-04 14:22:00,59.5,14.7,30.53,SW,234,5.8,7.6,17,0.00,,,0.00,VWS V14.00,2013-03-04 19:22:00,
2013-03-04 14:27:00,61.2,14.6,30.53,SW,234,2.7,4.0,16,0.00,,,0.00,VWS V14.00,2013-03-04 19:27:00,
2013-03-04 14:32:00,61.5,14.9,30.53,WNW,298,2.7,6.3,16,0.00,,,0.00,VWS V14.00,2013-03-04 19:32:00,
2013-03-04 14:37:00,61.5,14.9,30.53,NNW,340,8.3,8.3,16,0.00,,,0.00,VWS V14.00,2013-03-04 19:37:00,
2013-03-04 14:42:00,60.6,15.6,30.50,North,2,3.6,6.3,17,0.00,,,0.00,VWS V14.00,2013-03-04 19:42:00,
2013-03-04 14:47:00,61.2,14.6,30.50,WNW,297,3.6,4.9,16,0.00,,,0.00,VWS V14.00,2013-03-04 19:47:00,
2013-03-04 14:52:00,61.7,15.1,30.50,NW,318,2.7,3.6,16,0.00,,,0.00,VWS V14.00,2013-03-04 19:52:00,
2013-03-04 14:58:00,66.4,17.4,30.50,North,353,2.7,4.0,15,0.00,,,0.00,VWS V14.00,2013-03-04 19:58:00,
2013-03-04 15:03:00,71.4,19.8,30.50,WSW,253,8.1,8.1,14,0.00,,,0.00,VWS V14.00,2013-03-04 20:03:00,
2013-03-04 15:08:00,68.2,18.8,30.50,NNW,348,4.9,6.3,15,0.00,,,0.00,VWS V14.00,2013-03-04 20:08:00,
2013-03-04 15:13:00,69.8,18.5,30.50,North,357,0.0,5.8,14,0.00,,,0.00,VWS V14.00,2013-03-04 20:13:00,
2013-03-04 15:18:00,74.5,20.5,30.50,North,357,0.0,3.1,13,0.00,,,0.00,VWS V14.00,2013-03-04 20:18:00,
2013-03-04 15:23:00,75.7,21.5,30.50,SW,219,0.0,2.2,13,0.00,,,0.00,VWS V14.00,2013-03-04 20:23:00,
2013-03-04 15:28:00,72.1,20.4,30.50,NNW,338,3.1,5.8,14,0.00,,,0.00,VWS V14.00,2013-03-04 20:28:00,
2013-03-04 15:33:00,70.7,19.2,30.50,North,353,4.0,4.0,14,0.00,,,0.00,VWS V14.00,2013-03-04 20:33:00,
2013-03-04 15:39:00,72.3,20.5,30.50,North,6,0.0,0.0,14,0.00,,,0.00,VWS V14.00,2013-03-04 20:39:00,
2013-03-04 15:44:00,73.2,21.2,30.47,WNW,302,4.0,4.0,14,0.00,,,0.00,VWS V14.00,2013-03-04 20:44:00,
2013-03-04 15:49:00,70.0,18.6,30.47,South,173,7.6,8.3,14,0.00,,,0.00,VWS V14.00,2013-03-04 20:49:00,
2013-03-04 15:54:00,71.2,19.6,30.47,SW,232,2.7,3.1,14,0.00,,,0.00,VWS V14.00,2013-03-04 20:54:00,
2013-03-04 15:59:00,68.5,19.1,30.47,SSW,205,3.6,5.4,15,0.00,,,0.00,VWS V14.00,2013-03-04 20:59:00,
2013-03-04 16:04:00,68.0,18.7,30.47,WSW,247,3.1,5.8,15,0.00,,,0.00,VWS V14.00,2013-03-04 21:04:00,
2013-03-04 16:09:00,68.7,19.2,30.41,SE,126,5.4,5.4,15,0.00,,,0.00,VWS V14.00,2013-03-04 21:09:00,
2013-03-04 16:14:00,67.6,18.4,30.41,SSW,196,4.9,4.9,15,0.00,,,0.00,VWS V14.00,2013-03-04 21:14:00,
2013-03-04 16:20:00,67.8,18.5,30.41,SW,222,4.0,5.4,15,0.00,,,0.00,VWS V14.00,2013-03-04 21:20:00,
2013-03-04 16:25:00,67.3,18.1,30.41,WSW,243,2.7,4.0,15,0.00,,,0.00,VWS V14.00,2013-03-04 21:25:00,
2013-03-04 16:30:00,68.2,18.8,30.41,NNW,343,5.4,5.4,15,0.00,,,0.00,VWS V14.00,2013-03-04 21:30:00,
2013-03-04 16:35:00,66.7,17.6,30.41,WNW,301,2.2,4.0,15,0.00,,,0.00,VWS V14.00,2013-03-04 21:35:00,
2013-03-04 16:40:00,66.7,17.6,30.38,WSW,238,2.2,2.7,15,0.00,,,0.00,VWS V14.00,2013-03-04 21:40:00,
2013-03-04 16:45:00,66.0,17.1,30.38,WSW,258,3.6,4.0,15,0.00,,,0.00,VWS V14.00,2013-03-04 21:45:00,
2013-03-04 16:50:00,65.7,16.8,30.38,NW,317,0.0,3.1,15,0.00,,,0.00,VWS V14.00,2013-03-04 21:50:00,
2013-03-04 16:55:00,67.1,17.9,30.32,West,275,2.2,4.0,15,0.00,,,0.00,VWS V14.00,2013-03-04 21:55:00,
2013-03-04 17:00:00,67.5,18.2,30.32,North,353,2.7,2.7,15,0.00,,,0.00,VWS V14.00,2013-03-04 22:00:00,
2013-03-04 17:06:00,66.9,17.8,30.32,NE,38,2.2,2.7,15,0.00,,,0.00,VWS V14.00,2013-03-04 22:06:00,
2013-03-04 17:11:00,66.4,17.4,30.29,WNW,296,5.4,5.8,15,0.00,,,0.00,VWS V14.00,2013-03-04 22:11:00,
2013-03-04 17:16:00,63.9,16.8,30.29,WSW,239,0.0,6.3,16,0.00,,,0.00,VWS V14.00,2013-03-04 22:16:00,
2013-03-04 17:21:00,63.1,16.2,30.29,West,276,2.7,3.1,16,0.00,,,0.00,VWS V14.00,2013-03-04 22:21:00,
2013-03-04 17:26:00,62.6,15.8,30.29,SSW,206,2.2,4.0,16,0.00,,,0.00,VWS V14.00,2013-03-04 22:26:00,
2013-03-04 17:31:00,62.6,15.8,30.29,West,281,3.6,3.6,16,0.00,,,0.00,VWS V14.00,2013-03-04 22:31:00,
2013-03-04 17:36:00,61.9,15.2,30.29,NNW,330,0.0,2.2,16,0.00,,,0.00,VWS V14.00,2013-03-04 22:36:00,
2013-03-04 17:41:00,61.7,15.1,30.26,NNW,331,0.0,0.0,16,0.00,,,0.00,VWS V14.00,2013-03-04 22:41:00,
2013-03-04 17:46:00,61.7,15.1,30.26,NNW,331,0.0,0.0,16,0.00,,,0.00,VWS V14.00,2013-03-04 22:46:00,
2013-03-04 17:51:00,61.3,14.8,30.26,West,281,0.0,0.0,16,0.00,,,0.00,VWS V14.00,2013-03-04 22:51:00,
2013-03-04 17:57:00,61.0,14.5,30.32,West,281,0.0,0.0,16,0.00,,,0.00,VWS V14.00,2013-03-04 22:57:00,
2013-03-04 18:02:00,61.2,14.6,30.32,West,281,0.0,0.0,16,0.00,,,0.00,VWS V14.00,2013-03-04 23:02:00,
2013-03-04 18:07:00,61.2,14.6,30.32,West,281,0.0,0.0,16,0.00,,,0.00,VWS V14.00,2013-03-04 23:07:00,
2013-03-04 18:12:00,60.6,15.6,30.26,West,281,0.0,0.0,17,0.00,,,0.00,VWS V14.00,2013-03-04 23:12:00,
2013-03-04 18:17:00,60.1,15.1,30.26,West,281,0.0,0.0,17,0.00,,,0.00,VWS V14.00,2013-03-04 23:17:00,
2013-03-04 18:22:00,59.2,14.4,30.26,West,281,0.0,0.0,17,0.00,,,0.00,VWS V14.00,2013-03-04 23:22:00,
2013-03-04 18:27:00,58.1,13.5,30.23,West,281,0.0,0.0,17,0.00,,,0.00,VWS V14.00,2013-03-04 23:27:00,
2013-03-04 18:33:00,57.4,12.9,30.23,West,281,0.0,0.0,17,0.00,,,0.00,VWS V14.00,2013-03-04 23:33:00,
2013-03-04 18:38:00,56.7,16.1,30.23,West,281,0.0,0.0,20,0.00,,,0.00,VWS V14.00,2013-03-04 23:38:00,
2013-03-04 18:43:00,56.3,15.8,30.23,West,281,0.0,0.0,20,0.00,,,0.00,VWS V14.00,2013-03-04 23:43:00,
2013-03-04 18:48:00,55.8,15.3,30.23,West,281,0.0,0.0,20,0.00,,,0.00,VWS V14.00,2013-03-04 23:48:00,
2013-03-04 18:53:00,55.2,14.9,30.23,West,281,0.0,0.0,20,0.00,,,0.00,VWS V14.00,2013-03-04 23:53:00,
2013-03-04 18:58:00,54.5,17.5,30.20,West,281,0.0,0.0,23,0.00,,,0.00,VWS V14.00,2013-03-04 23:58:00,
2013-03-04 19:03:00,54.0,19.0,30.20,West,281,0.0,0.0,25,0.00,,,0.00,VWS V14.00,2013-03-05 00:03:00,
2013-03-04 19:09:00,53.2,19.3,30.20,West,281,0.0,0.0,26,0.00,,,0.00,VWS V14.00,2013-03-05 00:09:00,
2013-03-04 19:14:00,52.7,18.8,30.26,West,281,0.0,0.0,26,0.00,,,0.00,VWS V14.00,2013-03-05 00:14:00,
2013-03-04 19:19:00,52.3,18.5,30.26,SSW,211,0.0,0.0,26,0.00,,,0.00,VWS V14.00,2013-03-05 00:19:00,
2013-03-04 19:24:00,52.3,18.5,30.26,SSW,212,0.0,2.7,26,0.00,,,0.00,VWS V14.00,2013-03-05 00:24:00,
2013-03-04 19:29:00,52.2,18.3,30.35,SSW,212,0.0,0.0,26,0.00,,,0.00,VWS V14.00,2013-03-05 00:29:00,
2013-03-04 19:34:00,52.0,18.2,30.35,SSW,212,0.0,0.0,26,0.00,,,0.00,VWS V14.00,2013-03-05 00:34:00,
2013-03-04 19:39:00,51.6,17.9,30.35,SSW,212,0.0,0.0,26,0.00,,,0.00,VWS V14.00,2013-03-05 00:39:00,
2013-03-04 19:44:00,51.4,17.7,30.41,SSW,212,0.0,0.0,26,0.00,,,0.00,VWS V14.00,2013-03-05 00:44:00,
2013-03-04 19:50:00,51.3,17.6,30.41,SSW,212,0.0,0.0,26,0.00,,,0.00,VWS V14.00,2013-03-05 00:50:00,
2013-03-04 19:55:00,51.3,17.6,30.53,SSW,212,0.0,0.0,26,0.00,,,0.00,VWS V14.00,2013-03-05 00:55:00,
2013-03-04 20:00:00,51.1,18.3,30.53,SSW,212,0.0,0.0,27,0.00,,,0.00,VWS V14.00,2013-03-05 01:00:00,
2013-03-04 20:05:00,50.9,18.1,30.53,SSW,212,0.0,0.0,27,0.00,,,0.00,VWS V14.00,2013-03-05 01:05:00,
2013-03-04 20:10:00,50.7,18.0,30.44,SSW,212,0.0,0.0,27,0.00,,,0.00,VWS V14.00,2013-03-05 01:10:00,
2013-03-04 20:15:00,50.4,17.7,30.44,SSW,212,0.0,0.0,27,0.00,,,0.00,VWS V14.00,2013-03-05 01:15:00,
2013-03-04 20:20:00,50.2,18.4,30.44,SSW,212,0.0,0.0,28,0.00,,,0.00,VWS V14.00,2013-03-05 01:20:00,
2013-03-04 20:26:00,49.8,18.0,30.47,SSW,212,0.0,0.0,28,0.00,,,0.00,VWS V14.00,2013-03-05 01:26:00,
2013-03-04 20:31:00,49.8,18.0,30.47,SSW,212,0.0,0.0,28,0.00,,,0.00,VWS V14.00,2013-03-05 01:31:00,
2013-03-04 20:36:00,49.8,18.9,30.47,SSW,212,0.0,0.0,29,0.00,,,0.00,VWS V14.00,2013-03-05 01:36:00,
2013-03-04 20:41:00,49.8,18.9,30.44,SSW,212,0.0,0.0,29,0.00,,,0.00,VWS V14.00,2013-03-05 01:41:00,
2013-03-04 20:46:00,49.8,18.9,30.44,SSW,212,0.0,0.0,29,0.00,,,0.00,VWS V14.00,2013-03-05 01:46:00,
2013-03-04 20:51:00,49.6,18.7,30.44,SSW,212,0.0,0.0,29,0.00,,,0.00,VWS V14.00,2013-03-05 01:51:00,
2013-03-04 20:56:00,49.5,18.5,30.61,SSW,212,0.0,0.0,29,0.00,,,0.00,VWS V14.00,2013-03-05 01:56:00,
2013-03-04 21:01:00,49.3,18.4,30.61,SSW,212,0.0,0.0,29,0.00,,,0.00,VWS V14.00,2013-03-05 02:01:00,
2013-03-04 21:06:00,48.9,18.1,30.61,SSW,212,0.0,0.0,29,0.00,,,0.00,VWS V14.00,2013-03-05 02:06:00,
2013-03-04 21:12:00,48.6,18.5,30.67,SSW,212,0.0,0.0,30,0.00,,,0.00,VWS V14.00,2013-03-05 02:12:00,
2013-03-04 21:17:00,48.6,19.3,30.67,SSW,212,0.0,0.0,31,0.00,,,0.00,VWS V14.00,2013-03-05 02:17:00,
2013-03-04 21:22:00,48.7,18.7,30.67,SW,220,0.0,0.0,30,0.00,,,0.00,VWS V14.00,2013-03-05 02:22:00,
2013-03-04 21:27:00,49.3,18.4,30.64,SW,220,0.0,0.0,29,0.00,,,0.00,VWS V14.00,2013-03-05 02:27:00,
2013-03-04 21:32:00,49.6,18.7,30.64,SW,216,0.0,0.0,29,0.00,,,0.00,VWS V14.00,2013-03-05 02:32:00,
2013-03-04 21:37:00,49.8,18.0,30.64,SW,216,2.2,2.2,28,0.00,,,0.00,VWS V14.00,2013-03-05 02:37:00,
2013-03-04 21:42:00,50.0,17.4,30.64,SW,217,2.7,2.7,27,0.00,,,0.00,VWS V14.00,2013-03-05 02:42:00,
2013-03-04 21:47:00,50.2,17.5,30.64,SSE,158,4.0,4.0,27,0.00,,,0.00,VWS V14.00,2013-03-05 02:47:00,
2013-03-04 21:52:00,50.5,17.8,30.64,SW,222,2.7,5.8,27,0.00,,,0.00,VWS V14.00,2013-03-05 02:52:00,
2013-03-04 21:58:00,51.1,18.3,30.64,SW,220,3.1,3.6,27,0.00,,,0.00,VWS V14.00,2013-03-05 02:58:00,
2013-03-04 22:03:00,51.3,17.6,30.64,SW,222,3.6,4.0,26,0.00,,,0.00,VWS V14.00,2013-03-05 03:03:00,
2013-03-04 22:08:00,51.3,17.6,30.64,SW,220,2.7,3.6,26,0.00,,,0.00,VWS V14.00,2013-03-05 03:08:00,
2013-03-04 22:13:00,51.1,17.4,30.64,SW,214,2.2,2.2,26,0.00,,,0.00,VWS V14.00,2013-03-05 03:13:00,
2013-03-04 22:18:00,50.9,17.2,30.64,SSW,206,3.6,3.6,26,0.00,,,0.00,VWS V14.00,2013-03-05 03:18:00,
2013-03-04 22:23:00,50.9,17.2,30.64,SSW,203,0.0,0.0,26,0.00,,,0.00,VWS V14.00,2013-03-05 03:23:00,
2013-03-04 22:28:00,50.5,17.8,30.61,South,169,0.0,0.0,27,0.00,,,0.00,VWS V14.00,2013-03-05 03:28:00,
2013-03-04 22:34:00,50.4,17.7,30.61,South,171,0.0,2.2,27,0.00,,,0.00,VWS V14.00,2013-03-05 03:34:00,
2013-03-04 22:39:00,50.4,17.7,30.61,SSW,193,2.2,2.7,27,0.00,,,0.00,VWS V14.00,2013-03-05 03:39:00,
2013-03-04 22:44:00,50.4,17.7,30.61,WNW,286,3.1,3.1,27,0.00,,,0.00,VWS V14.00,2013-03-05 03:44:00,
2013-03-04 22:49:00,50.2,16.6,30.61,SE,145,3.1,3.1,26,0.00,,,0.00,VWS V14.00,2013-03-05 03:49:00,
2013-03-04 22:54:00,49.8,17.2,30.61,SSW,207,0.0,0.0,27,0.00,,,0.00,VWS V14.00,2013-03-05 03:54:00,
2013-03-04 22:59:00,49.6,17.0,30.61,SSW,207,0.0,0.0,27,0.00,,,0.00,VWS V14.00,2013-03-05 03:59:00,
2013-03-04 23:04:00,49.3,16.7,30.61,SSW,210,0.0,0.0,27,0.00,,,0.00,VWS V14.00,2013-03-05 04:04:00,
2013-03-04 23:10:00,49.1,16.6,30.76,SSW,210,0.0,0.0,27,0.00,,,0.00,VWS V14.00,2013-03-05 04:10:00,
2013-03-04 23:15:00,48.9,16.4,30.76,SW,219,0.0,2.2,27,0.00,,,0.00,VWS V14.00,2013-03-05 04:15:00,
2013-03-04 23:20:00,48.7,17.1,30.76,SW,219,0.0,0.0,28,0.00,,,0.00,VWS V14.00,2013-03-05 04:20:00,
2013-03-04 23:25:00,48.6,17.0,30.73,SW,219,0.0,0.0,28,0.00,,,0.00,VWS V14.00,2013-03-05 04:25:00,
2013-03-04 23:30:00,48.4,16.8,30.73,SW,219,0.0,0.0,28,0.00,,,0.00,VWS V14.00,2013-03-05 04:30:00,
2013-03-04 23:35:00,48.2,16.6,30.73,SW,219,0.0,0.0,28,0.00,,,0.00,VWS V14.00,2013-03-05 04:35:00,
2013-03-04 23:41:00,48.2,16.6,30.70,SW,219,0.0,0.0,28,0.00,,,0.00,VWS V14.00,2013-03-05 04:41:00,
2013-03-04 23:46:00,48.2,16.6,30.70,SW,219,0.0,0.0,28,0.00,,,0.00,VWS V14.00,2013-03-05 04:46:00,
2013-03-04 23:51:00,48.2,16.6,30.70,SW,219,0.0,0.0,28,0.00,,,0.00,VWS V14.00,2013-03-05 04:51:00,
2013-03-04 23:56:00,48.2,16.6,30.79,SW,232,0.0,2.2,28,0.00,,,0.00,VWS V14.00,2013-03-05 04:56:00,